Regional Weather Roundup
Issued by NWS Upton, NY

Current Version | Previous Version | Text Only | Print | Product List | Glossary Off
Versions: 1 2 3 4 5 6 7 8 9 10 11 12 13 14 15 16 17 18 19 20 21 22 23 24 25 26 27 28 29 30 31 32 33 34 35 36 37 38 39 40 41 42 43 44 45 46 47 48 49 50

000
ASUS41 KOKX 202307
RWROKX

REGIONAL WEATHER ROUNDUP
NATIONAL WEATHER SERVICE NEW YORK NY
700 PM EDT MON APR 20 2015

NOTE: "FAIR" INDICATES FEW OR NO CLOUDS BELOW 12,000 FEET WITH NO
SIGNIFICANT WEATHER AND/OR OBSTRUCTIONS TO VISIBILITY.

NYZ071-072-176-178-NJZ106-104-210000-
NEW YORK CITY METRO AREA


CITY           SKY/WX    TMP DP  RH WIND       PRES   REMARKS
CENTRAL PARK   FOG       53  53 100 E5        29.67F VSB 1
LAGUARDIA APRT FOG       50  49  96 NE7       29.65F VSB 1/4
KENNEDY INTL   FOG       54  52  93 E5        29.65F VSB 1/2
NEWARK/LIBERTY CLOUDY    58  56  93 NE7       29.64F FOG
BRNX BOT. GARD   N/A     52  52 100 N3        29.67S
TETERBORO      FOG       55  54  96 NE6       29.63F VSB 1/2
$$

NYZ177-179-078>081-210000-
LONG ISLAND NEW YORK

CITY           SKY/WX    TMP DP  RH WIND       PRES   REMARKS
FARMINGDALE    FOG       54  53  97 E7        29.65F VSB 1/4
ISLIP          FOG       55  54  96 E5        29.64F VSB 1/8
SHIRLEY        FOG       58  56  93 SE9       29.67F VSB 1/4
WESTHAMPTON    CLOUDY    54  53  97 SE7       29.70F FOG
MONTAUK POINT    N/A     52  50  93 SE12G25   29.74S
$$

NYZ052-065-067-210000-
HUDSON VALLEY

CITY           SKY/WX    TMP DP  RH WIND       PRES   REMARKS
WHITE PLAINS   FOG       53  53 100 E5        29.65F VSB<1/4
NEWBURGH       CLOUDY    55  55 100 E7        29.67F
MONTGOMERY     CLOUDY    55  32  41 NE7       29.65F
POUGHKEEPSIE   CLOUDY    57  52  83 E8        29.66F
ALBANY         CLOUDY    55  45  68 S9        29.72R
$$

NJZ001-105-106-008-010-013-015-019>022-104-210000-
NEW JERSEY

CITY           SKY/WX    TMP DP  RH WIND       PRES   REMARKS
NEWARK/LIBERTY CLOUDY    58  56  93 NE7       29.64F FOG
TETERBORO      FOG       55  54  96 NE6       29.63F VSB 1/2
CALDWELL       CLOUDY    56  55  97 NE8       29.64F FOG
MORRISTOWN     FOG       55  55 100 NE5       29.65F VSB 1
SOMERVILLE     CLOUDY    59  56  89 NE7       29.61S FOG
SUSSEX         CLOUDY    56  53  90 NE7       29.66R
ANDOVER          N/A     57  54  89 VRB3      29.64F
TRENTON        CLOUDY    63  59  87 NE14      29.59S FOG
MILLVILLE      PTCLDY    69  61  75 S8        29.60S
ATLANTIC CITY  CLEAR     63  57  81 S10       29.61F
WRIGHTSTOWN    CLEAR     70  63  79 SE9       29.56S
TOMS RIVER     CLEAR     66  61  82 S9        29.62R
BELMAR         CLEAR     61  54  77 S8        29.63R
$$

PAZ047>061-062-071-210000-
EASTERN PENNSYLVANIA

CITY           SKY/WX    TMP DP  RH WIND       PRES   REMARKS
PHILADELPHIA   MOCLDY    73  61  65 S12       29.58S
ALLENTOWN      CLOUDY    60  57  89 NE7       29.60F
SCRANTON       CLOUDY    61  53  75 VRB6      29.57F
$$

CTZ002-004>006-009-010-012-RIZ004-006-007-MAZ004-011-015-210000-
SOUTHERN NEW ENGLAND
 IN CT

CITY           SKY/WX    TMP DP  RH WIND       PRES   REMARKS
BRADLEY INTL   RAIN      50  48  93 N13       29.75S FOG
HARTFORD       RAIN      55  53  93 MISG      29.75S VSB 1
DANBURY        CLOUDY    53  52  96 NE7       29.68F FOG
WTRBRY/OXFORD  DRZL/FOG  55  48  76 E6        29.72F VSB 1
BRIDGEPORT     FOG       53  52  96 NE8       29.68F VSB<1/4
MERIDEN        LGT RAIN  55  53  93 CALM      29.72F FOG
NEW HAVEN      CLOUDY    52  51  97 NE6       29.70F FOG
CHESTER        DRZL/FOG  54  54 100 SE10G20   29.74S VSB 1
GROTON         LGT RAIN  50  49  96 SE18G30   29.74R FOG
WILLIMANTIC    RAIN      56  53  90 S13G18    29.76S FOG

 IN RI

CITY           SKY/WX    TMP DP  RH WIND       PRES   REMARKS
PROVIDENCE     LGT RAIN  54  52  93 S28G38    29.78F FOG
BLOCK ISLAND   CLOUDY    52  46  82 SE22G32   29.76R
WESTERLY       LGT RAIN  51  50  96 SE17G28   29.76R FOG

 IN MA

CITY           SKY/WX    TMP DP  RH WIND       PRES   REMARKS
BOSTON         RAIN      45  45 100 NE14      29.87F FOG
WORCESTER      LGT RAIN  45  44  97 NE10      29.81F VSB 1/4
WESTFIELD      LGT RAIN  48  46  93 NE7       29.77F FOG
PROVINCETOWN   CLOUDY   N/A N/A N/A SE22G32   29.87F
NANTUCKET      LGT RAIN  50  48  93 SE29G37   29.84F FOG
$$

ANZ330-335-338-340-345-350-353-355-210000-
COASTAL MARINE OBSERVATIONS


STATION/POSITION TIME  SKY/WX   TEMP    WIND        PRES    VSBY  WAVE
                                AIR SEA DIR/SP/G                  HT/PER
                 (UTC)          (F)     (DEG/KT/KT) (MB)    (MI)  (FT/S)
NY HARB ENTRANCE 2250            49 44  150/ 12/ 14 1002.6         10/ 9
4S FIRE IS       2203               43                N/A          10/ 9
20S FIRE ISLAND  2150               43              1006.3         10/10
23SW MTP         NOT AVBL
HUDSON CANYON    NOT AVBL
EXECUTION ROCKS  NOT AVBL
WESTERN LI SOUND NOT AVBL
CENTRAL LI SOUND NOT AVBL
EASTERN LI SOUND 2200            48     130/ 19/ 27   N/A
ROBBINS REEF     2200            55      90/ 11/ 12 1002.7
$$


>>>>>>>>>>>>>>>>>>>>>>>>>>>> KEY <<<<<<<<<<<<<<<<<<<<<<<<<<<
>                                                          <
>     SKY/WX - SKY CONDITION/PRESENT WEATHER               <
>     TMP    - TEMPERATURE IN FAHRENHEIT                   <
>     DP     - DEWPOINT IN FAHRENHEIT                      <
>     RH     - RELATIVE HUMIDITY IN PERCENT                <
>     WIND   - DIRECTION AND SPEED IN MPH                  <
>     PRES   - MEAN SEA LEVEL PRESSURE IN INCHES OF HG     <
>     WCI    - WIND CHILL INDEX                            <
>     VSB    - VISIBILITY IN MILES                         <
>     HX     - HEAT INDEX                                  <
>     TC     - TEMPERATURE IN CELSIUS                      <
>     VRB    - VARIABLE WIND DIRECTION                     <
>                                                          <
>>>>>>>>>>>>>>>>>>>>>>>>>>>> KEY <<<<<<<<<<<<<<<<<<<<<<<<<<<





USA.gov is the U.S. government's official web portal to all federal, state and local government web resources and services.